Apalachicola, FL

6:24 AM EDT on August 19, 2017 (GMT -0400)
Apalachicola Municipal

Weather History for KAAF - March, 2014

Change the Weather History Date:

Monday, March 24, 2014

  Actual Average Record
Temperature  
Mean Temperature 63 °F 62 °F  
Max Temperature 68 °F 72 °F 84 °F (1995)
Min Temperature 58 °F 52 °F 34 °F (1968)
Degree Days  
Heating Degree Days 2    
Month to date heating degree days 131  
Since 1 July heating degree days 1079  
Cooling Degree Days 0    
Month to date cooling degree days 12  
Year to date cooling degree days 25  
Growing Degree Days 12 (Base 50)    
Moisture  
Dew Point 52 °F    
Average Humidity 65    
Maximum Humidity 78    
Minimum Humidity 52    
Precipitation  
Precipitation T in 0.16 in 3.37 in (1982)
Month to date precipitation 5.39 4.11  
Year to date precipitation 17.09 12.66  
Sea Level Pressure  
Sea Level Pressure 30.03 in    
Wind  
Wind Speed 9 mph (ENE)    
Max Wind Speed 16 mph    
Max Gust Speed 20 mph    
Visibility 10 miles    
Events Rain    
T = Trace of Precipitation, MM = Missing Value Source: NWS Daily Summary

Daily Weather History Graph

Daily Weather History Graph

Search for Another Location

Airport or City:

Trip Planner

Search our weather history database for the weather conditions in past years. The results will help you decide how hot, cold, wet, or windy it might be!

Date:

Astronomy

Mar. 24, 2014 Rise Set
Actual Time 7:39 AM EDT 7:53 PM EDT
Civil Twilight 7:15 AM EDT 8:17 PM EDT
Nautical Twilight 6:47 AM EDT 8:45 PM EDT
Astronomical Twilight 6:19 AM EDT 9:13 PM EDT
Moon 2:44 AM EDT (3/24) 1:42 PM EDT (3/24)
Length of Visible Light 13h 02m
Length of Day
12h 14m
Last Quarter, 43% of the Moon is Illuminated
Mar 24
Last Quarter
Mar 30
New
Apr 7
First Quarter
Apr 15
Full
Apr 22
Last Quarter

Hourly Weather History & Observations

Time (EDT) Temp. Dew Point Humidity Pressure Visibility Wind Dir Wind Speed Gust Speed Precip Events Conditions
12:53 AM 64.9 °F 55.0 °F 70% 30.09 in 10.0 mi North 12.7 mph 21.9 mph N/A   Clear
1:53 AM 64.9 °F 53.1 °F 65% 30.09 in 10.0 mi North 11.5 mph - N/A   Clear
2:53 AM 64.0 °F 53.1 °F 67% 30.11 in 10.0 mi North 6.9 mph - N/A   Clear
3:53 AM 62.1 °F 52.0 °F 70% 30.05 in 10.0 mi NNE 15.0 mph - N/A   Clear
4:53 AM 61.0 °F 48.9 °F 64% 30.06 in 10.0 mi NNE 12.7 mph - N/A   Clear
5:53 AM 60.1 °F 48.0 °F 64% 30.06 in 10.0 mi NE 9.2 mph - N/A   Clear
6:53 AM 57.9 °F 46.9 °F 67% 30.05 in 10.0 mi NE 10.4 mph - N/A   Mostly Cloudy
7:53 AM 57.9 °F 46.0 °F 65% 30.06 in 10.0 mi NE 10.4 mph - N/A   Clear
8:53 AM 57.9 °F 46.0 °F 65% 30.09 in 10.0 mi NE 9.2 mph - N/A   Clear
9:53 AM 61.0 °F 45.0 °F 56% 30.10 in 10.0 mi ENE 9.2 mph - N/A   Partly Cloudy
10:53 AM 64.0 °F 46.9 °F 54% 30.10 in 10.0 mi NE 10.4 mph - N/A   Mostly Cloudy
11:53 AM 64.9 °F 48.9 °F 56% 30.09 in 10.0 mi Variable 5.8 mph - N/A   Clear
12:53 PM 64.9 °F 52.0 °F 63% 30.08 in 10.0 mi ESE 9.2 mph - 0.00 in Rain Light Rain
1:53 PM 64.9 °F 53.1 °F 65% 30.04 in 10.0 mi ENE 13.8 mph 18.4 mph 0.00 in   Mostly Cloudy
2:53 PM 66.0 °F 53.1 °F 63% 30.05 in 10.0 mi East 11.5 mph - N/A   Overcast
3:53 PM 66.9 °F 54.0 °F 63% 30.01 in 10.0 mi East 10.4 mph - 0.00 in   Mostly Cloudy
4:53 PM 64.9 °F 54.0 °F 68% 29.99 in 10.0 mi East 8.1 mph - 0.00 in Rain Light Rain
5:53 PM 66.0 °F 54.0 °F 65% 29.95 in 10.0 mi East 9.2 mph - 0.00 in   Overcast
6:53 PM 66.0 °F 54.0 °F 65% 29.96 in 10.0 mi East 6.9 mph - N/A   Overcast
7:53 PM 64.9 °F 55.0 °F 70% 29.95 in 10.0 mi East 5.8 mph - N/A   Mostly Cloudy
8:53 PM 64.0 °F 55.0 °F 73% 29.96 in 10.0 mi NE 3.5 mph - N/A   Mostly Cloudy
9:53 PM 63.0 °F 55.9 °F 78% 29.96 in 10.0 mi ENE 3.5 mph - N/A   Mostly Cloudy
10:53 PM 66.0 °F 55.9 °F 70% 29.96 in 10.0 mi ESE 12.7 mph - N/A   Unknown
11:02 PM 64.9 °F 55.0 °F 70% 29.96 in 10.0 mi East 12.7 mph - N/A   Overcast
11:53 PM 64.9 °F 55.0 °F 70% 29.96 in 10.0 mi ESE 8.1 mph - N/A   Overcast